Location: Melbourne
(37.8120°S, 144.9677°E)
Time: 21:28:56
(UTC+10:00)

Daily predictions for brighter satellites

Satellite Brightness Start Highest point End
(mag) Time Altitude Azimuth Time Altitude Azimuth Time Altitude Azimuth
Nadezhda 3 Rocket 4.1 18:06:16 10° N 18:12:20 59° E 18:18:26 10° SSE
Meteor 1-11 Rocket 3.8 18:09:41 10° S 18:15:41 76° E 18:21:28 10° NNE
YAOGAN 1 2.9 18:12:00 10° SSE 18:16:14 44° E 18:20:23 10° N
Cosmos 1140 Rocket 4.4 18:14:30 10° NW 18:19:39 54° WSW 18:24:51 10° S
Okean 3 3.5 18:17:17 10° N 18:21:32 83° E 18:25:51 10° S
Cosmos 1242 Rocket 2.5 18:19:14 10° N 18:22:50 90° W 18:26:28 10° S
Helios 1B rocket 2.5 18:20:34 10° NNE 18:24:42 86° WNW 18:28:54 10° SSW
Cosmos 1570 Rocket 4.3 18:22:13 10° SSW 18:27:40 79° WNW 18:33:02 10° NNE
Atlas Centaur 2 3.2 18:28:24 10° WNW 18:34:27 38° N 18:39:18 10° ENE
Cosmos 2098 4.4 18:34:36 10° S 18:37:45 66° E 18:41:29 10° NNE
Cosmos 1544 Rocket 3.9 18:35:20 10° S 18:39:32 42° E 18:43:40 10° NNE
Cosmos 1238 Rocket 4.4 18:33:14 10° NNW 18:39:59 74° W 18:46:06 10° S
MOS 1 4.5 18:39:21 10° SSE 18:45:07 80° WSW 18:50:47 10° NNW
Cosmos 1697 Rocket 2.7 18:40:12 10° SSW 18:45:54 64° ESE 18:51:32 10° NNE
Cosmos 1633 2.8 18:43:16 10° S 18:47:04 78° W 18:50:48 10° N
SL-16 R/B 3.7 18:44:49 10° SSE 18:48:18 16° SE 18:49:50 15° ESE
Cosmos 1934 Rocket 4.0 18:46:59 10° S 18:53:01 57° E 18:58:58 10° NNE
Cosmos 1536 3.2 18:50:03 10° SSW 18:54:06 67° W 18:58:04 10° N
IDEFIX/ARIANE 42P 2.5 18:51:13 10° SSE 18:56:31 74° ENE 19:01:44 10° N
SPOT 3 Rocket 4.4 18:53:21 10° S 18:58:30 54° WSW 19:03:33 10° NNW
GPS 2-05 Rocket1 3.3 18:55:56 10° WNW 18:59:35 56° N 19:01:30 25° ENE
IUS-1 SRM-2 4.4 19:03:41 10° NNW 19:05:32 15° NNE 19:06:59 13° NE
CZ-2C R/B 2.6 19:00:48 10° S 19:05:39 77° WSW 19:10:36 10° NNW
Cosmos 1980 Rocket 2.2 19:02:04 10° SSW 19:07:40 58° ESE 19:13:12 10° NE
SMAP 4.0 19:05:43 10° S 19:10:17 50° WSW 19:14:49 10° NNW
MSX 3.8 19:07:35 10° SSE 19:13:24 68° ENE 19:19:09 10° N
Cosmos 1763 Rocket 3.9 19:15:33 10° S 19:20:38 42° ESE 19:22:31 31° ENE
USA 229 DEB 4.4 19:14:35 10° NW 19:21:42 59° SW 19:28:50 10° SSE
USA 229 4.3 19:14:41 10° NW 19:21:48 60° SW 19:28:56 10° SSE
Cosmos 1484 Rocket 2.7 19:18:13 10° SSE 19:22:16 79° E 19:26:12 10° N
Cosmos 2084 Rocket 3.8 19:18:18 10° NW 19:23:02 79° WSW 19:27:01 16° SSE
GEOS 3 Rocket 4.5 19:19:11 10° NNE 19:24:15 51° WNW 19:29:25 10° SW
Cosmos 2082 Rocket 4.1 19:21:55 10° WNW 19:26:44 29° WSW 19:31:37 10° S
Abrixas rocket 2.7 19:25:25 10° WSW 19:28:48 58° NW 19:29:28 47° N
Gbstr 26 Del rocket 2.6 19:26:40 10° NW 19:30:41 86° SW 19:31:29 55° SE
COSMOS 2441 4.4 19:26:47 10° S 19:31:43 85° WSW 19:36:36 10° NNW
Cosmos 468 Rocket 4.2 19:26:42 10° SSW 19:31:59 72° WNW 19:37:10 10° N
SL-23 DEB 4.4 19:30:42 10° SW 19:34:33 60° SE 19:35:50 45° E
Cosmos 1812 2.8 19:30:50 10° N 19:34:45 80° W 19:38:44 10° S
Cosmos 1605 Rocket 4.0 19:29:57 10° S 19:36:26 89° E 19:42:52 10° N
Cosmos 1975 2.7 19:34:06 10° S 19:38:13 70° E 19:38:25 69° ENE
SL-8 R/B 4.3 19:33:55 10° NNW 19:38:04 38° NNE 19:38:04 38° NNE
Cosmos 2322 Rocket 2.6 19:33:08 10° S 19:38:31 40° ESE 19:38:38 40° ESE
Cosmos 1814 Rocket 4.2 19:33:49 10° SSW 19:39:10 75° WNW 19:44:31 10° N
ATLAS 3B R/B 4.4 19:36:00 10° S 19:40:03 16° SSE 19:40:31 16° SE
Cosmos 841 Rocket 3.5 19:35:24 10° S 19:40:39 56° ESE 19:41:25 51° ENE
NOSS 3-1 (A) 4.0 19:32:39 10° NNW 19:40:51 63° ENE 19:46:09 22° SE
Meteor 2-8 Rocket 4.4 19:36:05 10° N 19:42:12 86° W 19:48:22 10° S
Cosmos 2100 Rocket 4.3 19:36:25 10° S 19:42:31 42° ESE 19:42:47 42° E
Cosmos 2360 4.1 19:37:07 10° SSW 19:42:53 83° ESE 19:46:00 28° NNE
SAR-Lupe-1 4.4 19:40:17 13° S 19:43:24 65° WSW 19:46:57 10° NNW
Cosmos 1455 Rocket 4.1 19:39:21 10° SSW 19:43:35 45° W 19:47:45 10° NNW
Okean 1 3.4 19:42:00 10° NNW 19:45:59 73° W 19:50:04 10° S
NOSS 3-1 (C) 4.0 19:46:26 10° NNW 19:54:50 88° WSW 20:01:15 17° SSE
SJ-6B 3.3 19:59:38 59° W 19:59:38 59° W 20:03:12 10° NNW
Cosmos 1503 Rocket 4.0 19:54:05 10° NNW 19:59:28 88° WSW 20:01:48 35° SSE
Meteor 1-13 Rocket 4.1 20:08:27 10° N 20:14:02 84° W 20:19:40 10° S
Cosmos 1459 Rocket 4.1 20:16:27 10° S 20:21:34 61° S 20:21:34 61° S
Atlas Centaur 2 3.3 20:18:01 10° WNW 20:22:00 30° NW 20:22:00 30° NW
SL-16 R/B 2.7 20:27:19 10° SSW 20:31:45 54° SW 20:31:45 54° SW
Cosmos 2360 Rocket 4.2 20:46:25 10° SSW 20:47:59 19° S 20:47:59 19° S
USA 184 4.3 20:53:50 10° SSW 21:01:32 65° ESE 21:36:01 10° NE
Cosmos 2322 Rocket 4.3 21:17:42 10° SW 21:20:30 22° WSW 21:20:30 22° WSW
Centaur D AC-29 4.3 21:25:22 10° WNW 22:05:34 - ENE 21:25:47 13° WNW
ATLAS 3B R/B 4.5 21:25:08 10° SSW 21:27:47 25° SSW 21:27:47 25° SSW
